910  
ASUS43 KIWX 160610  
RWRIWX  
 
KIWX WEATHER ROUNDUP  
NATIONAL WEATHER SERVICE NORTHERN INDIANA  
200 AM EDT THU AUG 16 2018  
 
NOTE: "FAIR" INDICATES FEW OR NO CLOUDS BELOW 12,000 FEET WITH NO  
SIGNIFICANT WEATHER AND/OR S TO VISIBILITY
.  
 
* THESE STATIONS ARE NOT UNDER NWS QUALITY CONTROL. THEY ALSO MAY NOT  
REPORT WEATHER SUCH AS PRECIPITATION OR FOG.
 
 
INZ001>027-160700-  
NORTHERN INDIANA  
 
CITY SKY/WX TMP DP RH WIND PRES REMARKS
 
GARY* FAIR 72 70 94 CALM 29.94F  
VALPARAISO CLOUDY 72 68 87 E5 29.95S  
6HR MIN TEMP: 71; 6HR MAX TEMP: 77;  
 
MICHIGAN CITY* CLOUDY 70 66 88 CALM 29.96F  
LAPORTE* CLOUDY 70 68 95 SE3 29.96F  
6HR MIN TEMP: 69; 6HR MAX TEMP: 73;  
 
KNOX* CLOUDY 70 68 94 SE3 29.95S  
SOUTH BEND CLOUDY 70 67 90 E8 29.97S  
6HR MIN TEMP: 69; 6HR MAX TEMP: 73;  
 
GOSHEN CLOUDY 70 69 97 SE8 29.97F  
6HR MIN TEMP: 69; 6HR MAX TEMP: 71; 6HR PCP: 0.07;  
 
MONTICELLO* CLOUDY 70 69 95 CALM 29.93F  
6HR MIN TEMP: 70; 6HR MAX TEMP: 71; 6HR PCP: 0.26;  
 
LOGANSPORT* CLOUDY 70 68 94 S3 29.96S  
ROCHESTER* CLOUDY 72 70 94 SE3 29.95F  
WARSAW* CLOUDY 68 68 100 SE5 29.97F  
KENDALLVILLE* LGT RAIN 69 69 100 SE5 29.99F  
AUBURN* DRIZZLE N/A N/A N/A E5 30.00F  
FORT WAYNE LGT RAIN 70 70 100 CALM 29.98F  
6HR MIN TEMP: 69; 6HR MAX TEMP: 73; 6HR PCP: 0.67;  
 
HUNTINGTON* HVY RAIN N/A N/A N/A S3 29.97F  
PERU/GRISSOM CLOUDY 72 72 100 S5 29.95F  
6HR MIN TEMP: 69; 6HR MAX TEMP: 71; 6HR PCP: 0.22;  
 

 
INZ028>050-160700-  
CENTRAL INDIANA  
 
CITY SKY/WX TMP DP RH WIND PRES REMARKS
 
LAFAYETTE CLOUDY 71 70 96 CALM 29.93S  
6HR MIN TEMP: 71; 6HR MAX TEMP: 72; 6HR PCP: 0.11;  
 
KOKOMO* CLOUDY 71 70 96 S8 29.97F  
6HR MIN TEMP: 69; 6HR MAX TEMP: 71; 6HR PCP: 0.58;  
 
MUNCIE* CLOUDY 70 67 90 S7 29.98F  
6HR MIN TEMP: 70; 6HR MAX TEMP: 74; 6HR PCP: 0.59;  
 
INDIANAPOLIS CLOUDY 68 67 96 S8 29.96F  
6HR MIN TEMP: 68; 6HR MAX TEMP: 72; 6HR PCP: 0.21;  
 

 
MIZ043>046-050>051-056>058-064>065-071>073-077>080-160700-  
SOUTHWEST LOWER MICHIGAN  
 
CITY SKY/WX TMP DP RH WIND PRES REMARKS
 
BATTLE CREEK MOCLDY 70 67 90 SE3 30.00F  
6HR MIN TEMP: 69; 6HR MAX TEMP: 79;  
 
BENTON HARBOR CLOUDY 70 68 93 SE5 29.96S  
6HR MIN TEMP: 70; 6HR MAX TEMP: 78; 6HR PCP: TRACE;  
 
COLDWATER* CLOUDY 70 70 98 CALM 30.00F  
6HR MIN TEMP: 69; 6HR MAX TEMP: 76;  
 
HILLSDALE* CLOUDY 70 64 83 S5 30.01F  
HOLLAND CLOUDY 71 68 90 SE6 29.98R  
6HR MIN TEMP: 71; 6HR MAX TEMP: 77;  
 
GRAND RAPIDS CLOUDY 71 70 96 S6 29.98S  
6HR MIN TEMP: 71; 6HR MAX TEMP: 83; 6HR PCP: 0.17;  
 
KALAMAZOO FAIR 69 66 90 VRB3 29.99F  
6HR MIN TEMP: 69; 6HR MAX TEMP: 77;  
 
STURGIS* CLOUDY 71 67 85 SE3 29.98F  
6HR MIN TEMP: 71; 6HR MAX TEMP: 76;  
 
THREE RIVERS* MOCLDY 68 66 93 CALM 29.99F  
6HR MIN TEMP: 68; 6HR MAX TEMP: 75;  
 

 
OHZ001>008-015>018-024>025-160700-  
NORTHWEST OHIO  
 
CITY SKY/WX TMP DP RH WIND PRES REMARKS
 
WAUSEON* CLOUDY 70 70 100 SE5 30.01F  
DEFIANCE CLOUDY 70 69 97 SE3 29.99F  
6HR MIN TEMP: 70; 6HR MAX TEMP: 75; 6HR PCP: 0.01;  
 
FINDLAY LGT RAIN 71 69 93 SE6 30.01F  
6HR MIN TEMP: 71; 6HR MAX TEMP: 75; 6HR PCP: 0.30;  
 
OTTAWA* MOCLDY 68 66 94 SE3 30.02F  
TOLEDO EXPRESS LGT RAIN 70 68 93 SE3 30.01F FOG  
6HR MIN TEMP: 70; 6HR MAX TEMP: 79; 6HR PCP: 0.03;  
 
LIMA LGT RAIN 69 68 96 S8 30.00F  
6HR MIN TEMP: 69; 6HR MAX TEMP: 71; 6HR PCP: 0.42;  
 

 
AND FOR LAKE MICHIGAN COASTAL AND OPEN LAKE BUOY OBSERVATIONS  
 
STATION/POSITION TEMP WIND PRES VSBY WAVE
 
AIR SEA DIR/SP/G HT/PER  
(F) (DEG/KT/KT) (MB) (MI) (FT/S)  
CALUMET HARBOR 73 150/ 2/ 3 1013.1F  
MICHIGAN CITY 71 130/ 6/ 7 N/A  
BURNS HARBOR 72 1014.2S  
SAINT JOSEPH 70 CALM / 3 1015.2  
SOUTH LAKE BUOY 75 77 170/ 12/ 14 1013.7S 3/ 5  
4 MI NW BRIDGMAN 72 77 140/ 8/ 10 1014.2 1/ 3  
MICHIGAN CITY 72 77 150/ 8/ 10 N/A 1  
 

 

 
 
 
CLICK HERE TO GO TO PREVIOUS BULLETINS.

The Nexlab IN Page
The Nexlab OH Page
The Nexlab MI Page Main Text Page